Tracking 29042 objects as of 20-Jun-2024
HD Live streaming from Space Station
objects crossing your sky now

ORBCOMM FM 111

Track ORBCOMM FM 111 now!
10-day predictions
ORBCOMM FM 111 is classified as:


NORAD ID: 40089
Int'l Code: 2014-040D
Perigee: 606.5 km
Apogee: 653.4 km
Inclination: 47.0 °
Period: 97.2 minutes
Semi major axis: 7000 km
RCS: Unknown
Launch date: July 14, 2014
Source: United States (US)
Launch site: AIR FORCE EASTERN TEST RANGE (AFETR)
Your satellite tracking list
Your tracking list is empty




NASA's NSSDC Master Catalog

Two Line Element Set (TLE):
1 40089U 14040D   24172.55288029  .00001082  00000-0  15993-3 0  9996
2 40089  47.0065  29.7191 0033504 264.6040  95.1032 14.82064928536504
Source of the keplerian elements: AFSPC